Location: Courçay
(47.2523°N, 0.8761°E)
Time: 18:47:18
(UTC+00:00)

Daily predictions for brighter satellites

Satellite Brightness Start Highest point End
(mag) Time Altitude Azimuth Time Altitude Azimuth Time Altitude Azimuth
Cosmos 1763 Rocket 3.7 16:47:57 10° NNW 16:53:01 49° ENE 16:57:59 10° SE
SL-16 R/B 2.6 16:47:20 10° NNE 16:53:39 89° ESE 16:59:54 10° SSW
Landsat 7 4.2 16:49:41 10° SE 16:53:58 38° ENE 16:58:17 10° N
SAR-Lupe-5 4.2 16:52:55 10° NNE 16:55:32 74° ESE 16:58:11 10° S
Timation 1 Rocket 4.5 16:52:41 10° NNW 16:58:33 54° NE 17:04:23 10° SE
RESURS DK-1 2.5 16:54:43 10° NNW 16:58:37 46° ENE 17:02:28 10° SE
Cosmos 1140 Rocket 3.5 16:53:29 10° SSW 16:58:39 85° ESE 17:03:50 10° NNE
Aureole 3 Rocket 3.7 16:57:58 10° SE 17:00:09 18° E 17:02:26 10° NE
CZ-4C R/B 3.6 16:56:14 10° W 17:00:14 26° NNW 17:05:08 10° NNE
UNK 3.7 17:01:57 10° NNE 17:06:33 65° ESE 17:11:07 10° S
Meteor 1-28 Rocket 3.2 17:03:18 10° N 17:06:40 69° WNW 17:10:00 10° SSW
Cosmos 1400 Rocket 4.4 17:07:21 10° ESE 17:09:33 15° E 17:11:07 12° ENE
Meteor 2-12 Rocket 4.5 17:03:39 10° N 17:09:40 58° ENE 17:15:38 10° SSE
SJ-12 3.9 17:06:38 10° SE 17:10:17 48° ENE 17:13:58 10° N
SAR-Lupe-3 4.4 17:13:53 10° NNE 17:16:20 34° E 17:18:46 10° SSE
Helios 1A Rocket 4.4 17:16:48 12° E 17:16:48 12° E 17:17:51 10° ESE
Okean 2 Rocket 4.4 17:13:49 10° SE 17:16:56 19° E 17:20:03 10° NE
CORIOLIS 4.2 17:14:30 10° SSE 17:19:53 87° WSW 17:25:16 10° NNW
IRS-1C 4.1 17:16:05 10° SSE 17:21:22 77° ENE 17:26:43 10° NNW
ATLAS CENTAUR R/B 3.7 17:23:58 10° NW 17:24:24 10° NNW 17:24:49 10° NNW
SL-12 R/B(2) 4.3 17:17:28 10° SSW 17:25:19 75° SE 17:34:57 10° NE
COSMO-SKYMED 1 3.7 17:26:49 17° ENE 17:28:25 20° E 17:31:30 10° SE
Resurs 01 Rocket 3.7 17:30:11 10° NE 17:30:11 10° NE 17:30:24 10° NNE
Thor Agena Rocket 4.3 17:23:26 10° S 17:28:37 58° WSW 17:33:50 10° NNW
Cosmos 1943 Rocket 2.1 17:23:31 10° SSW 17:29:06 71° ESE 17:34:40 10° NNE
Timation 2 Rocket 4.2 17:23:31 10° SSW 17:30:23 78° ESE 17:37:15 10° NNE
Cosmos 2251 Rocket 3.7 17:28:08 10° S 17:33:12 50° ESE 17:38:21 10° NNE
Cosmos 841 Rocket 4.2 17:28:57 10° N 17:33:40 32° ENE 17:38:20 10° ESE
Cosmos 2058 3.0 17:30:28 10° N 17:34:20 48° ENE 17:38:11 10° SSE
BREEZE-M DEB (TANK) 2.1 17:34:14 10° WSW 17:36:38 83° SSE 17:39:49 20° ENE
ATLAS 2AS CENTAUR R/B 3.6 17:33:00 10° NNW 17:38:48 29° NNE 17:42:14 19° ENE
Cosmos 2082 Rocket 2.1 17:33:19 10° NNW 17:38:55 64° ENE 17:44:28 10° SE
Cosmos 2278 Rocket 2.2 17:36:55 10° SSW 17:42:34 84° ESE 17:48:16 10° NNE
IRAS Rocket 4.5 17:37:47 10° SE 17:43:03 46° ENE 17:48:19 10° N
MOS 1 Rocket 3.0 17:40:49 10° SSE 17:45:05 71° ENE 17:49:37 10° N
Cosmos 1602 2.9 17:42:33 10° N 17:45:37 68° E 17:48:39 10° SSE
Cosmos 1975 Rocket 4.4 17:44:03 10° NNW 17:48:10 42° W 17:52:17 10° SSW
Cosmos 468 Rocket 3.9 17:42:57 10° NNW 17:48:11 77° ENE 17:53:20 10° SSE
AQUARIUS 4.2 17:43:58 10° SSE 17:48:23 81° WSW 17:52:49 10° NNW
Cosmos 1464 Rocket 4.0 17:43:13 10° SSE 17:49:20 57° E 17:55:25 10° NNE
ARIANE 5 R/B 3.0 17:45:11 10° S 17:50:05 60° WSW 17:55:04 10° NNW
CZ-2D R/B 3.5 17:46:53 10° SSE 17:50:54 54° ENE 17:55:01 10° N
Cosmos 2369 Rocket 4.1 17:49:28 10° SE 17:50:08 12° ESE 17:50:08 12° ESE
ATLAS 5 CENTAUR R/B 4.3 17:50:57 10° WNW 17:54:42 24° WSW 17:59:03 10° S
USA 215 3.6 17:48:29 10° SE 17:54:58 65° SW 18:01:30 10° WNW
PSLV R/B 3.6 17:52:54 10° SE 17:56:44 43° ENE 18:00:34 10° N
Cosmos 1862 3.0 17:53:10 10° N 17:56:47 61° E 18:00:22 10° SSE
Geosat FO 3.8 17:57:42 31° SE 17:58:56 79° ENE 18:01:48 10° NNW
Cosmos 2151 Rocket 3.5 17:55:29 10° S 17:59:55 66° E 18:04:24 10° NNE
Cosmos 1190 Rocket 3.9 17:55:42 10° SSW 18:00:58 73° ESE 18:05:26 15° NNE
ISS -3.4 17:59:53 10° W 18:03:10 55° NNW 18:03:52 44° NNE
Cosmos 2034 Rocket 4.1 17:57:25 10° SSE 18:03:19 49° E 18:09:19 10° NNE
Cosmos 676 Rocket 4.2 17:59:03 10° S 18:04:07 48° ESE 18:06:42 27° NE
Cosmos 1812 2.8 18:01:22 10° SSW 18:04:12 49° WNW 18:06:21 16° N
Okean 1 Rocket 3.2 18:02:23 10° SSE 18:06:37 49° E 18:08:25 30° NE
Cosmos 1656 Rocket 4.2 18:01:44 10° S 18:06:46 37° ESE 18:07:59 33° ENE
SKYMED 2 3.4 18:03:51 10° NNE 18:08:09 75° ESE 18:12:28 10° S
Cosmos 407 Rocket 4.4 18:06:30 10° SW 18:11:29 46° WNW 18:16:26 10° NNE
Sich 1 Rocket 3.6 18:07:55 10° S 18:12:21 58° E 18:14:56 24° NNE
USA 281 3.9 18:11:29 30° ENE 18:12:47 32° NE 18:18:28 10° N
Cosmos 1954 Rocket 3.9 18:08:08 10° SSW 18:13:23 75° ESE 18:16:53 21° NNE
COSMOS 2406 3.1 18:08:55 10° NNW 18:14:36 67° ENE 18:19:01 17° SE
BlueWalker 3 3.6 18:13:51 10° S 18:15:40 20° SSE 18:15:40 20° SSE
Cosmos 1092 Rocket 4.2 18:10:49 10° N 18:16:48 46° ENE 18:22:42 10° SSE
SL-19 R/B 3.9 18:13:01 10° SSE 18:18:13 77° ENE 18:23:28 10° NNW
Cosmos 968 Rocket 4.5 18:17:17 10° SSE 18:20:21 28° SE 18:20:21 28° SE
Cosmos 2026 Rocket 3.9 18:15:53 10° N 18:21:52 55° ENE 18:27:53 10° SSE
SJ 16-02 1.2 18:18:19 10° SSW 18:22:38 84° WNW 18:24:29 34° NNE
Cosmos 44 Rocket 3.9 18:18:53 10° SW 18:23:34 52° NW 18:26:14 25° NNE
YAOGAN 1 2.4 18:19:41 10° SSE 18:23:56 89° E 18:28:14 10° NNW
SPOT 1/Viking Rocket 3.8 18:20:32 10° S 18:25:41 70° WSW 18:30:53 10° NNW
Cosmos 2344 3.9 18:24:32 10° NW 18:32:23 68° NE 18:38:34 26° ESE
Spot 4 Rocket 4.3 18:31:22 10° S 18:36:25 66° WSW 18:41:31 10° NNW
Meteor 2-3 Rocket 3.6 18:32:05 10° N 18:37:48 79° ENE 18:43:25 10° SSE
Resurs 1-3 3.8 18:34:11 10° S 18:38:28 70° WSW 18:42:47 10° NNW
Nadezhda 4 Rocket 4.5 18:38:01 10° NNW 18:44:12 60° W 18:50:17 10° S
Cosmos 1400 Rocket 3.7 18:40:59 10° SSW 18:44:37 44° WNW 18:45:47 33° NNW
Cosmos 304 Rocket 4.0 18:42:46 10° SSW 18:47:28 66° WNW 18:48:46 45° N
Cosmos 371 Rocket 3.5 18:44:32 10° SSW 18:49:19 66° WNW 18:50:35 46° N
Helios 1A Rocket 4.0 18:50:28 32° WSW 18:50:28 32° WSW 18:52:36 10° SW
CZ-4C R/B 4.2 18:46:54 10° NW 18:50:39 18° N 18:51:49 17° NNE
Okean 2 Rocket 4.1 18:50:21 10° SSW 18:54:33 44° WNW 18:57:20 19° NNW
Cosmos 1627 Rocket 4.3 18:48:29 10° N 18:54:39 90° W 19:00:50 10° S
COSMO-SKYMED 1 3.7 19:03:11 36° NW 19:03:53 40° WNW 19:07:45 10° SW
Resurs 01 Rocket 3.8 19:07:36 17° NNW 19:07:36 17° NNW 19:08:39 10° NNW
Geosat 4.0 19:05:27 75° W 19:05:27 75° W 19:10:15 10° NNW
BREEZE-M DEB (TANK) 4.4 18:59:40 10° WNW 19:11:32 52° SSW 19:12:27 47° S
BREEZE-M DEB (TANK) 3.8 19:08:20 10° W 19:11:47 75° NNW 19:11:47 75° NNW
Cosmos 1943 Rocket 4.1 19:08:53 10° W 19:13:22 24° NW 19:16:48 14° N
Cosmos 2082 Rocket 4.4 19:18:16 10° NW 19:22:28 22° W 19:26:39 10° SSW
Cosmos 2278 Rocket 4.3 19:23:08 10° W 19:27:23 21° NW 19:30:23 15° N
ATLAS 2AS CENTAUR R/B 2.8 19:23:52 10° NW 19:29:41 66° NNW 19:29:41 66° NNW
Cosmos 1634 Rocket 4.2 19:28:47 10° SSW 19:42:28 - N 19:34:50 66° W
Cosmos 2369 Rocket 3.9 19:30:01 10° SSW 19:31:59 23° SSW 19:31:59 23° SSW
USA 281 3.8 19:58:22 52° WNW 19:58:22 52° WNW 20:03:28 10° NNW
SJ 16-02 4.4 19:59:49 10° WNW 20:01:03 12° NW 20:01:03 12° NW
